DAL2159 KBOS-KATL

Flight info

Callsign DAL2159
Flight time 2h 15m
Altitude 36000
Route BLZZR6 BLZZR BAF Q448 PTW J48 MOL FLASK OZZZI2
Aircraft B738/M-SDE2E3FGHIRWXY/LB1

Departure

Time 2026-05-04 12:28
Airport Boston Logan International Airport (KBOS)

Arrival

Time 2026-05-04 14:44
Airport Hartsfield Jackson Atlanta International Airport (KATL)
Time Latitude Longitude Altitude Speed Heading
2026-05-04 12:28 42.17764 -70.80383 14502 ft 319 kts 262°
2026-05-04 12:28 42.17383 -70.83411 14723 ft 335 kts 262°
2026-05-04 12:28 42.16986 -70.86536 15214 ft 341 kts 262°
2026-05-04 12:28 42.16572 -70.89660 15845 ft 344 kts 261°
2026-05-04 12:29 42.16142 -70.92846 16457 ft 348 kts 262°
2026-05-04 12:29 42.16153 -70.96093 16887 ft 354 kts 285°
2026-05-04 12:29 42.16808 -70.99269 17639 ft 352 kts 278°
2026-05-04 12:29 42.16971 -71.02576 18233 ft 356 kts 272°
2026-05-04 12:30 42.17050 -71.05937 18702 ft 360 kts 273°
2026-05-04 12:30 42.17189 -71.09316 19225 ft 363 kts 274°
2026-05-04 12:30 42.17374 -71.12719 19748 ft 365 kts 275°
2026-05-04 12:30 42.17588 -71.16146 20267 ft 368 kts 275°
2026-05-04 12:31 42.17820 -71.19592 20765 ft 371 kts 275°
2026-05-04 12:31 42.18063 -71.23076 21261 ft 374 kts 275°
2026-05-04 12:31 42.18310 -71.26577 21763 ft 377 kts 275°
2026-05-04 12:31 42.18559 -71.30105 22256 ft 380 kts 275°
2026-05-04 12:32 42.18810 -71.33662 22720 ft 382 kts 275°
2026-05-04 12:32 42.19312 -71.40850 23605 ft 388 kts 275°
2026-05-04 12:32 42.19564 -71.44481 23983 ft 390 kts 275°
2026-05-04 12:33 42.19816 -71.48131 24384 ft 391 kts 275°
2026-05-04 12:33 42.20067 -71.51791 24775 ft 393 kts 275°
2026-05-04 12:33 42.20318 -71.55466 25151 ft 395 kts 275°
2026-05-04 12:33 42.20570 -71.59171 25463 ft 398 kts 275°
2026-05-04 12:34 42.20738 -71.61638 25677 ft 400 kts 275°
2026-05-04 12:34 42.21076 -71.66648 26161 ft 402 kts 275°
2026-05-04 12:34 42.21243 -71.69136 26394 ft 403 kts 275°
2026-05-04 12:34 42.21577 -71.74141 26838 ft 405 kts 275°
2026-05-04 12:35 42.21719 -71.76709 27050 ft 407 kts 272°
2026-05-04 12:35 42.21640 -71.80535 27360 ft 409 kts 267°
2026-05-04 12:35 42.21331 -71.85616 27774 ft 412 kts 266°
2026-05-04 12:35 42.21067 -71.89469 28080 ft 413 kts 266°
2026-05-04 12:36 42.20892 -71.92088 28270 ft 415 kts 266°
2026-05-04 12:36 42.20644 -71.95985 28446 ft 419 kts 266°
2026-05-04 12:36 42.20410 -71.99861 28741 ft 420 kts 266°
2026-05-04 12:36 42.20183 -72.03782 29191 ft 418 kts 266°
2026-05-04 12:37 42.19959 -72.07715 29769 ft 413 kts 266°
2026-05-04 12:37 42.19741 -72.11577 30159 ft 412 kts 266°
2026-05-04 12:37 42.19524 -72.15434 30419 ft 413 kts 266°
2026-05-04 12:37 42.19308 -72.19243 30697 ft 413 kts 266°
2026-05-04 12:38 42.19088 -72.23093 31055 ft 411 kts 266°
2026-05-04 12:38 42.18867 -72.26937 31407 ft 410 kts 266°
2026-05-04 12:38 42.18645 -72.30764 31653 ft 411 kts 266°
2026-05-04 12:38 42.18421 -72.34608 31935 ft 411 kts 266°
2026-05-04 12:39 42.18197 -72.38438 32291 ft 409 kts 266°
2026-05-04 12:39 42.17972 -72.42252 32626 ft 407 kts 266°
2026-05-04 12:39 42.17746 -72.46060 32915 ft 407 kts 266°
2026-05-04 12:39 42.17520 -72.49861 33188 ft 407 kts 266°
2026-05-04 12:40 42.17292 -72.53666 33472 ft 406 kts 265°
2026-05-04 12:40 42.17064 -72.57461 33776 ft 405 kts 265°
2026-05-04 12:40 42.16835 -72.61244 34049 ft 405 kts 266°
2026-05-04 12:40 42.16602 -72.65020 34266 ft 404 kts 265°
2026-05-04 12:41 42.16082 -72.68750 34407 ft 407 kts 254°
2026-05-04 12:41 42.15090 -72.72337 34581 ft 409 kts 248°
2026-05-04 12:41 42.13776 -72.75748 34770 ft 412 kts 240°
2026-05-04 12:41 42.12069 -72.78873 34926 ft 415 kts 235°
2026-05-04 12:42 42.10268 -72.81912 35120 ft 415 kts 234°
2026-05-04 12:42 42.08457 -72.84942 35318 ft 415 kts 234°
2026-05-04 12:42 42.06652 -72.87980 35455 ft 416 kts 235°
2026-05-04 12:42 42.04894 -72.90959 35624 ft 416 kts 235°
2026-05-04 12:43 42.03083 -72.94045 35815 ft 416 kts 235°
2026-05-04 12:43 42.01293 -72.97102 35940 ft 417 kts 235°
2026-05-04 12:43 41.99490 -73.00179 35937 ft 420 kts 235°
2026-05-04 12:44 41.95695 -73.06199 35920 ft 425 kts 227°
2026-05-04 12:44 41.90900 -73.10888 35974 ft 429 kts 216°
2026-05-04 12:45 41.85815 -73.15073 35972 ft 428 kts 216°
2026-05-04 12:45 41.80750 -73.19284 35977 ft 427 kts 217°
2026-05-04 12:46 41.75721 -73.23499 35973 ft 426 kts 217°
2026-05-04 12:46 41.70698 -73.27707 35974 ft 425 kts 217°
2026-05-04 12:47 41.65805 -73.32100 35971 ft 420 kts 225°
2026-05-04 12:47 41.61860 -73.37742 35983 ft 415 kts 233°
2026-05-04 12:48 41.58101 -73.43619 35981 ft 416 kts 233°
2026-05-04 12:48 41.54308 -73.49481 35993 ft 418 kts 233°
2026-05-04 12:49 41.50483 -73.55352 35984 ft 419 kts 232°
2026-05-04 12:49 41.46674 -73.61181 36004 ft 421 kts 232°
2026-05-04 12:50 41.42819 -73.67070 35996 ft 421 kts 232°
2026-05-04 12:50 41.38962 -73.72954 35993 ft 422 kts 232°
2026-05-04 12:51 41.35093 -73.78844 35990 ft 422 kts 232°
2026-05-04 12:51 41.31184 -73.84686 35984 ft 423 kts 232°
2026-05-04 12:52 41.27232 -73.90480 35986 ft 423 kts 231°
2026-05-04 12:52 41.23290 -73.96263 35985 ft 421 kts 231°
2026-05-04 12:53 41.21574 -73.98783 35984 ft 421 kts 231°
2026-05-04 12:53 41.18023 -74.03997 35994 ft 420 kts 232°
2026-05-04 12:54 41.14102 -74.09740 36009 ft 420 kts 232°
2026-05-04 12:54 41.10352 -74.15641 36012 ft 418 kts 235°
2026-05-04 12:55 41.06713 -74.21644 36007 ft 417 kts 235°
2026-05-04 12:55 41.03065 -74.27617 36025 ft 416 kts 234°
2026-05-04 12:56 40.99401 -74.33557 36027 ft 417 kts 234°
2026-05-04 12:56 40.95740 -74.39460 36018 ft 418 kts 234°
2026-05-04 12:57 40.94675 -74.41175 36021 ft 418 kts 234°
2026-05-04 12:58 40.92527 -74.44629 36007 ft 419 kts 234°
2026-05-04 12:59 40.88816 -74.50588 36019 ft 420 kts 234°
2026-05-04 12:59 40.88389 -74.51271 36023 ft 420 kts 234°
2026-05-04 13:00 40.86519 -74.54269 36035 ft 421 kts 234°
2026-05-04 13:00 40.82788 -74.60243 36022 ft 422 kts 234°
2026-05-04 13:01 40.79047 -74.66222 36027 ft 423 kts 234°
2026-05-04 13:01 40.75292 -74.72208 35986 ft 424 kts 234°
2026-05-04 13:02 40.71561 -74.78146 35999 ft 423 kts 234°
2026-05-04 13:02 40.67809 -74.84107 36008 ft 423 kts 234°
2026-05-04 13:03 40.64048 -74.90072 36010 ft 423 kts 234°
2026-05-04 13:03 40.60883 -74.95083 36010 ft 422 kts 234°
2026-05-04 13:04 40.58674 -74.98576 36012 ft 422 kts 234°
2026-05-04 13:04 40.56792 -75.01546 36005 ft 421 kts 234°
2026-05-04 13:05 40.53070 -75.07430 36011 ft 420 kts 234°
2026-05-04 13:05 40.49341 -75.13337 36041 ft 419 kts 234°
2026-05-04 13:06 40.45613 -75.19233 36036 ft 420 kts 234°
2026-05-04 13:06 40.41881 -75.25123 36037 ft 420 kts 234°
2026-05-04 13:07 40.38146 -75.31006 36024 ft 419 kts 234°
2026-05-04 13:07 40.34407 -75.36883 36036 ft 419 kts 234°
2026-05-04 13:08 40.30669 -75.42748 36056 ft 420 kts 234°
2026-05-04 13:08 40.27204 -75.48176 36044 ft 420 kts 234°
2026-05-04 13:09 40.23448 -75.54049 36046 ft 421 kts 234°
2026-05-04 13:09 40.19982 -75.60181 36052 ft 418 kts 240°
2026-05-04 13:10 40.16851 -75.66586 36051 ft 418 kts 241°
2026-05-04 13:10 40.13689 -75.72976 36048 ft 419 kts 240°
2026-05-04 13:11 40.10487 -75.79346 36049 ft 420 kts 240°
2026-05-04 13:11 40.07265 -75.85714 36024 ft 420 kts 240°
2026-05-04 13:12 40.04023 -75.92078 35995 ft 421 kts 240°
2026-05-04 13:12 40.00786 -75.98423 36020 ft 420 kts 240°
2026-05-04 13:13 39.97548 -76.04765 36030 ft 420 kts 240°
2026-05-04 13:13 39.94321 -76.11108 36028 ft 419 kts 240°
2026-05-04 13:14 39.91144 -76.17415 36030 ft 419 kts 240°
2026-05-04 13:14 39.87929 -76.23732 36031 ft 418 kts 240°
2026-05-04 13:15 39.84693 -76.30030 36027 ft 418 kts 240°
2026-05-04 13:15 39.81458 -76.36318 36032 ft 418 kts 240°
2026-05-04 13:16 39.78225 -76.42600 36029 ft 418 kts 240°
2026-05-04 13:16 39.74984 -76.48887 36037 ft 418 kts 240°
2026-05-04 13:17 39.71741 -76.55166 36023 ft 419 kts 240°
2026-05-04 13:17 39.68489 -76.61448 36018 ft 419 kts 240°
2026-05-04 13:18 39.65233 -76.67727 36023 ft 419 kts 240°
2026-05-04 13:18 39.61974 -76.73998 36037 ft 419 kts 240°
2026-05-04 13:19 39.58704 -76.80280 36026 ft 420 kts 240°
2026-05-04 13:19 39.55433 -76.86553 36026 ft 420 kts 240°
2026-05-04 13:20 39.52151 -76.92834 36014 ft 421 kts 240°
2026-05-04 13:20 39.48579 -76.98861 36017 ft 426 kts 230°
2026-05-04 13:21 39.44019 -77.03798 36021 ft 431 kts 224°
2026-05-04 13:21 39.39335 -77.08642 36025 ft 431 kts 224°
2026-05-04 13:22 39.34669 -77.13502 36047 ft 430 kts 224°
2026-05-04 13:22 39.30020 -77.18368 36038 ft 430 kts 224°
2026-05-04 13:23 39.25379 -77.23227 36050 ft 429 kts 224°
2026-05-04 13:23 39.20739 -77.28077 36050 ft 429 kts 224°
2026-05-04 13:24 39.16860 -77.32125 36056 ft 428 kts 224°
2026-05-04 13:24 39.12256 -77.36921 36044 ft 428 kts 224°
2026-05-04 13:25 39.05308 -77.44142 36039 ft 427 kts 224°
2026-05-04 13:25 39.00683 -77.48940 36037 ft 427 kts 224°
2026-05-04 13:26 38.96055 -77.53732 36037 ft 427 kts 224°
2026-05-04 13:26 38.91425 -77.58517 36022 ft 427 kts 224°
2026-05-04 13:27 38.86797 -77.63292 36040 ft 427 kts 225°
2026-05-04 13:27 38.82165 -77.68063 36054 ft 427 kts 224°
2026-05-04 13:28 38.77525 -77.72835 36049 ft 428 kts 224°
2026-05-04 13:28 38.72880 -77.77605 36059 ft 428 kts 224°
2026-05-04 13:29 38.68233 -77.82369 36033 ft 428 kts 224°
2026-05-04 13:29 38.63724 -77.87288 36044 ft 422 kts 232°
2026-05-04 13:30 38.60164 -77.93162 36054 ft 417 kts 238°
2026-05-04 13:30 38.56715 -77.99129 36059 ft 417 kts 238°
2026-05-04 13:31 38.53240 -78.05086 36055 ft 418 kts 238°
2026-05-04 13:31 38.49768 -78.10993 36031 ft 418 kts 238°
2026-05-04 13:32 38.46266 -78.16928 36039 ft 418 kts 238°
2026-05-04 13:32 38.42764 -78.22853 36051 ft 418 kts 238°
2026-05-04 13:33 38.39256 -78.28777 36039 ft 418 kts 238°
2026-05-04 13:33 38.35771 -78.34652 36039 ft 418 kts 238°
2026-05-04 13:34 38.32240 -78.40595 36048 ft 418 kts 238°
2026-05-04 13:34 38.28733 -78.46484 36043 ft 417 kts 238°
2026-05-04 13:35 38.23476 -78.55296 36055 ft 417 kts 238°
2026-05-04 13:36 38.19969 -78.61161 36054 ft 416 kts 238°
2026-05-04 13:36 38.16482 -78.66982 36057 ft 416 kts 238°
2026-05-04 13:37 38.12972 -78.72830 36050 ft 415 kts 238°
2026-05-04 13:37 38.09466 -78.78662 36053 ft 416 kts 238°
2026-05-04 13:38 38.05952 -78.84498 36056 ft 416 kts 238°
2026-05-04 13:38 38.02430 -78.90336 36057 ft 416 kts 238°
2026-05-04 13:39 37.98906 -78.96168 36054 ft 416 kts 238°
2026-05-04 13:39 37.95382 -79.01990 36048 ft 416 kts 238°
2026-05-04 13:40 37.91852 -79.07812 36034 ft 416 kts 238°
2026-05-04 13:40 37.88180 -79.13513 36023 ft 419 kts 234°
2026-05-04 13:41 37.84246 -79.18963 36009 ft 420 kts 233°
2026-05-04 13:41 37.80305 -79.24365 35990 ft 420 kts 233°
2026-05-04 13:42 37.74387 -79.32535 35987 ft 420 kts 233°
2026-05-04 13:42 37.70452 -79.37982 35951 ft 420 kts 233°
2026-05-04 13:43 37.66518 -79.43421 35983 ft 419 kts 234°
2026-05-04 13:43 37.62586 -79.48847 36005 ft 418 kts 234°
2026-05-04 13:44 37.58663 -79.54251 36027 ft 418 kts 234°
2026-05-04 13:44 37.54740 -79.59648 36040 ft 417 kts 233°
2026-05-04 13:45 37.50813 -79.65039 36061 ft 417 kts 234°
2026-05-04 13:45 37.46884 -79.70426 36074 ft 418 kts 234°
2026-05-04 13:46 37.42946 -79.75815 36085 ft 418 kts 234°
2026-05-04 13:46 37.39006 -79.81198 36089 ft 418 kts 234°
2026-05-04 13:47 37.35085 -79.86546 36101 ft 418 kts 234°
2026-05-04 13:47 37.31142 -79.91915 36096 ft 417 kts 234°
2026-05-04 13:48 37.27202 -79.97270 36091 ft 417 kts 234°
2026-05-04 13:48 37.23266 -80.02612 36076 ft 416 kts 234°
2026-05-04 13:49 37.19331 -80.07943 36093 ft 416 kts 234°
2026-05-04 13:49 37.15393 -80.13271 36107 ft 417 kts 234°
2026-05-04 13:50 37.11443 -80.18608 36098 ft 417 kts 234°
2026-05-04 13:50 37.07517 -80.23901 36104 ft 417 kts 234°
2026-05-04 13:51 37.03577 -80.29207 36093 ft 416 kts 234°
2026-05-04 13:51 36.99608 -80.34464 36080 ft 417 kts 233°
2026-05-04 13:52 36.93495 -80.42179 36084 ft 415 kts 233°
2026-05-04 13:53 36.89426 -80.47298 36066 ft 414 kts 233°
2026-05-04 13:53 36.85370 -80.52415 36018 ft 414 kts 233°
2026-05-04 13:54 36.79314 -80.60055 36043 ft 411 kts 233°
2026-05-04 13:55 36.73288 -80.67645 36112 ft 410 kts 233°
2026-05-04 13:55 36.67269 -80.75207 36113 ft 409 kts 233°
2026-05-04 13:56 36.63259 -80.80234 36065 ft 409 kts 233°
2026-05-04 13:57 36.57272 -80.87724 36085 ft 408 kts 233°
2026-05-04 13:58 36.49261 -80.97720 36075 ft 408 kts 233°
2026-05-04 13:58 36.43254 -81.05197 36100 ft 407 kts 233°
2026-05-04 13:59 36.39248 -81.10174 36119 ft 407 kts 233°
2026-05-04 14:00 36.33242 -81.17620 36133 ft 407 kts 233°
2026-05-04 14:00 36.27226 -81.25060 36152 ft 407 kts 233°
2026-05-04 14:01 36.23207 -81.30022 36118 ft 408 kts 233°
2026-05-04 14:02 36.17165 -81.37466 36075 ft 408 kts 232°
2026-05-04 14:02 36.13126 -81.42432 36072 ft 409 kts 232°
2026-05-04 14:03 36.09085 -81.47394 36058 ft 410 kts 232°
2026-05-04 14:03 36.05063 -81.52326 36055 ft 411 kts 232°
2026-05-04 14:04 35.98957 -81.59796 36060 ft 412 kts 232°
2026-05-04 14:04 35.94876 -81.64780 36021 ft 413 kts 232°
2026-05-04 14:05 35.88751 -81.72244 36058 ft 413 kts 232°
2026-05-04 14:06 35.84661 -81.77220 36143 ft 414 kts 232°
2026-05-04 14:06 35.80560 -81.82202 36127 ft 414 kts 232°
2026-05-04 14:07 35.76479 -81.87151 36119 ft 414 kts 232°
2026-05-04 14:07 35.72373 -81.92124 36097 ft 414 kts 232°
2026-05-04 14:08 35.68259 -81.97097 36104 ft 414 kts 232°
2026-05-04 14:08 35.64149 -82.02059 36108 ft 414 kts 232°
2026-05-04 14:09 35.57974 -82.09498 36110 ft 414 kts 232°
2026-05-04 14:10 35.51811 -82.16908 36126 ft 413 kts 232°
2026-05-04 14:10 35.47704 -82.21837 36106 ft 412 kts 231°
2026-05-04 14:11 35.44298 -82.25919 36107 ft 412 kts 231°
2026-05-04 14:11 35.38154 -82.33267 36098 ft 411 kts 231°
2026-05-04 14:12 35.33389 -82.38955 36087 ft 411 kts 231°
2026-05-04 14:13 35.27909 -82.45486 36090 ft 411 kts 231°
2026-05-04 14:13 35.23841 -82.50325 36129 ft 411 kts 231°
2026-05-04 14:14 35.19737 -82.55200 36116 ft 411 kts 231°
2026-05-04 14:14 35.15597 -82.60116 35424 ft 419 kts 231°
2026-05-04 14:14 35.13511 -82.62587 34894 ft 416 kts 231°
2026-05-04 14:15 35.09398 -82.67444 34054 ft 407 kts 231°
2026-05-04 14:15 35.05371 -82.72186 33157 ft 397 kts 231°
2026-05-04 14:16 35.01448 -82.76821 32326 ft 389 kts 230°
2026-05-04 14:16 34.99517 -82.79098 31913 ft 385 kts 230°
2026-05-04 14:17 34.95697 -82.83599 31114 ft 378 kts 230°
2026-05-04 14:17 34.93812 -82.85818 30734 ft 375 kts 230°
2026-05-04 14:17 34.90084 -82.90201 29915 ft 370 kts 230°
2026-05-04 14:18 34.88239 -82.92367 29482 ft 367 kts 230°
2026-05-04 14:18 34.84602 -82.96630 28684 ft 359 kts 230°
2026-05-04 14:19 34.81032 -83.00812 27901 ft 353 kts 230°
2026-05-04 14:19 34.79272 -83.02871 27500 ft 350 kts 230°
2026-05-04 14:19 34.77515 -83.04926 27120 ft 348 kts 230°
2026-05-04 14:19 34.75775 -83.06961 26731 ft 347 kts 230°
2026-05-04 14:20 34.74026 -83.09008 26357 ft 353 kts 230°
2026-05-04 14:20 34.72229 -83.11114 25980 ft 363 kts 230°
2026-05-04 14:20 34.70393 -83.13262 25505 ft 367 kts 230°
2026-05-04 14:21 34.66737 -83.17518 24635 ft 364 kts 230°
2026-05-04 14:21 34.64912 -83.19638 24245 ft 362 kts 230°
2026-05-04 14:21 34.63100 -83.21744 23845 ft 360 kts 230°
2026-05-04 14:21 34.61295 -83.23841 23375 ft 358 kts 230°
2026-05-04 14:22 34.59502 -83.25923 22949 ft 356 kts 230°
2026-05-04 14:22 34.57718 -83.27993 22523 ft 353 kts 230°
2026-05-04 14:22 34.55951 -83.30044 22138 ft 350 kts 229°
2026-05-04 14:22 34.54199 -83.32075 21737 ft 347 kts 229°
2026-05-04 14:23 34.50743 -83.36080 20994 ft 341 kts 229°
2026-05-04 14:23 34.49034 -83.38060 20613 ft 339 kts 229°
2026-05-04 14:23 34.47333 -83.40028 20236 ft 337 kts 229°
2026-05-04 14:24 34.45642 -83.41985 19864 ft 335 kts 229°
2026-05-04 14:24 34.43960 -83.43930 19481 ft 334 kts 229°
2026-05-04 14:24 34.42282 -83.45868 19110 ft 333 kts 229°
2026-05-04 14:24 34.40607 -83.47802 18745 ft 332 kts 229°
2026-05-04 14:25 34.38934 -83.49733 18350 ft 331 kts 229°
2026-05-04 14:25 34.35632 -83.53548 17558 ft 329 kts 228°
2026-05-04 14:25 34.33978 -83.55452 17182 ft 327 kts 228°
2026-05-04 14:26 34.32332 -83.57344 16814 ft 325 kts 227°
2026-05-04 14:26 34.30696 -83.59224 16432 ft 324 kts 227°
2026-05-04 14:26 34.29067 -83.61098 16085 ft 322 kts 227°
2026-05-04 14:26 34.27446 -83.62964 15722 ft 322 kts 227°
2026-05-04 14:27 34.25825 -83.64824 15359 ft 321 kts 226°
2026-05-04 14:27 34.24206 -83.66680 15001 ft 320 kts 226°
2026-05-04 14:27 34.22591 -83.68533 14656 ft 320 kts 226°
2026-05-04 14:27 34.20976 -83.70391 14270 ft 321 kts 226°
2026-05-04 14:28 34.19350 -83.72251 13901 ft 322 kts 225°
2026-05-04 14:28 34.17717 -83.74108 13475 ft 322 kts 225°
2026-05-04 14:28 34.16095 -83.75966 13102 ft 320 kts 225°
2026-05-04 14:28 34.14487 -83.77817 12723 ft 319 kts 225°
2026-05-04 14:29 34.11268 -83.81497 11987 ft 317 kts 225°
2026-05-04 14:29 34.08049 -83.85110 11290 ft 316 kts 223°
2026-05-04 14:30 34.06409 -83.86865 10925 ft 315 kts 223°
2026-05-04 14:30 34.04769 -83.88606 10567 ft 314 kts 222°
2026-05-04 14:30 34.01573 -83.92025 10240 ft 299 kts 222°
2026-05-04 14:31 34.00055 -83.93649 10103 ft 291 kts 222°
2026-05-04 14:31 33.96896 -83.96520 9600 ft 285 kts 197°
2026-05-04 14:32 33.92998 -83.96734 9078 ft 280 kts 178°
2026-05-04 14:32 33.91074 -83.96618 8928 ft 274 kts 178°
2026-05-04 14:32 33.89180 -83.96515 8805 ft 272 kts 178°
2026-05-04 14:32 33.87288 -83.96422 8697 ft 272 kts 178°
2026-05-04 14:33 33.85401 -83.96336 8585 ft 271 kts 178°
2026-05-04 14:33 33.83511 -83.96254 8474 ft 271 kts 178°
2026-05-04 14:33 33.81616 -83.96172 8371 ft 274 kts 178°
2026-05-04 14:33 33.79710 -83.96093 8246 ft 274 kts 178°
2026-05-04 14:34 33.77809 -83.96013 8148 ft 269 kts 178°
2026-05-04 14:34 33.75986 -83.95944 8049 ft 254 kts 180°
2026-05-04 14:34 33.74306 -83.96375 7822 ft 245 kts 203°
2026-05-04 14:34 33.72771 -83.97187 7578 ft 238 kts 203°
2026-05-04 14:35 33.71267 -83.97953 7331 ft 232 kts 203°
2026-05-04 14:35 33.69799 -83.98690 7099 ft 225 kts 202°
2026-05-04 14:35 33.68369 -83.99403 6878 ft 219 kts 202°
2026-05-04 14:35 33.66978 -84.00096 6668 ft 215 kts 202°
2026-05-04 14:36 33.65668 -84.00907 6439 ft 211 kts 223°
2026-05-04 14:36 33.64951 -84.02408 6039 ft 212 kts 262°
2026-05-04 14:36 33.64896 -84.04146 5790 ft 206 kts 270°
2026-05-04 14:36 33.64929 -84.05815 5649 ft 196 kts 272°
2026-05-04 14:37 33.64977 -84.07417 5481 ft 191 kts 271°
2026-05-04 14:37 33.64998 -84.08970 5332 ft 182 kts 270°
2026-05-04 14:37 33.65006 -84.10479 5210 ft 180 kts 270°
2026-05-04 14:37 33.65003 -84.11983 5086 ft 181 kts 269°
2026-05-04 14:38 33.64998 -84.13502 4938 ft 184 kts 270°
2026-05-04 14:38 33.64996 -84.15045 4693 ft 183 kts 270°
2026-05-04 14:38 33.65007 -84.16545 4505 ft 177 kts 272°
2026-05-04 14:38 33.65008 -84.17992 4290 ft 170 kts 269°
2026-05-04 14:39 33.64992 -84.19392 4150 ft 169 kts 270°
2026-05-04 14:39 33.64983 -84.20811 4027 ft 170 kts 270°
2026-05-04 14:39 33.64980 -84.22195 3979 ft 165 kts 270°
2026-05-04 14:40 33.64972 -84.24989 3603 ft 164 kts 270°
2026-05-04 14:40 33.64970 -84.26353 3435 ft 165 kts 271°
2026-05-04 14:40 33.64957 -84.27721 3190 ft 158 kts 270°
2026-05-04 14:40 33.64963 -84.29011 2973 ft 151 kts 269°
2026-05-04 14:41 33.64964 -84.30237 2806 ft 142 kts 270°
2026-05-04 14:41 33.64961 -84.31398 2627 ft 133 kts 269°
2026-05-04 14:41 33.64961 -84.33661 2214 ft 134 kts 268°
2026-05-04 14:42 33.64957 -84.35887 1860 ft 132 kts 268°
2026-05-04 14:42 33.64956 -84.37010 1716 ft 139 kts 268°
2026-05-04 14:42 33.64955 -84.38167 1506 ft 139 kts 268°
2026-05-04 14:43 33.64956 -84.39330 1295 ft 138 kts 267°
2026-05-04 14:43 33.64962 -84.40468 1157 ft 137 kts 267°
2026-05-04 14:43 33.64959 -84.41620 1006 ft 135 kts 267°
2026-05-04 14:43 33.64953 -84.42592 1006 ft 95 kts 271°
2026-05-04 14:44 33.64943 -84.43104 1005 ft 37 kts 260°
2026-05-04 14:44 33.64896 -84.43257 1006 ft 5 kts 240°
2026-05-04 14:44 33.64893 -84.43264 1006 ft 0 kts 240°
2026-05-04 14:45 33.64893 -84.43265 1006 ft 0 kts 240°
2026-05-04 14:45 33.64892 -84.43266 1006 ft 0 kts 240°
2026-05-04 14:45 33.64889 -84.43272 1005 ft 1 kts 240°
2026-05-04 14:46 33.64879 -84.43286 1005 ft 3 kts 223°
2026-05-04 14:46 33.64858 -84.43303 1005 ft 4 kts 205°
2026-05-04 14:46 33.64827 -84.43303 1006 ft 5 kts 164°
2026-05-04 14:46 33.64819 -84.43298 1006 ft 0 kts 154°
2026-05-04 14:47 33.64814 -84.43295 1006 ft 1 kts 147°
2026-05-04 14:47 33.64804 -84.43284 1006 ft 2 kts 133°
2026-05-04 14:47 33.64795 -84.43259 1006 ft 4 kts 106°
2026-05-04 14:47 33.64791 -84.43219 1006 ft 0 kts 93°
2026-05-04 14:48 33.64790 -84.43206 1006 ft 3 kts 93°
2026-05-04 14:48 33.64784 -84.43171 1006 ft 5 kts 115°
2026-05-04 14:48 33.64754 -84.43137 1006 ft 7 kts 158°
2026-05-04 14:48 33.64700 -84.43133 1006 ft 9 kts 179°
2026-05-04 14:49 33.64645 -84.43174 1007 ft 11 kts 238°
2026-05-04 14:49 33.64604 -84.43258 1007 ft 13 kts 241°
2026-05-04 14:49 33.64558 -84.43358 1006 ft 11 kts 242°
2026-05-04 14:49 33.64505 -84.43420 1005 ft 8 kts 201°
2026-05-04 14:50 33.64441 -84.43441 1005 ft 11 kts 211°
2026-05-04 14:50 33.64368 -84.43458 1005 ft 8 kts 180°
2026-05-04 14:50 33.64309 -84.43466 1005 ft 3 kts 217°
2026-05-04 14:50 33.64299 -84.43497 1005 ft 5 kts 264°
2026-05-04 14:51 33.64298 -84.43511 1005 ft 2 kts 270°
2026-05-04 14:51 33.64298 -84.43524 1005 ft 0 kts 271°